Regional Weather Roundup
Issued by NWS

Home | Current Version | Previous Version | Graphics & Text | Print | Product List | Glossary On
Versions: 1 2 3 4 5 6 7 8 9 10 11 12 13 14 15 16 17 18 19 20 21 22 23 24 25 26 27 28 29 30 31 32 33 34 35 36 37 38 39 40 41 42 43 44 45 46 47 48 49 50
000
ASUS43 KLSX 272307
RWRMO

WEATHER SUMMARY FOR MISSOURI
NATIONAL WEATHER SERVICE SPRINGFIELD MO
500 PM CST TUE JAN 27 2015

NOTE: "FAIR" INDICATES FEW OR NO CLOUDS BELOW 12,000 FEET WITH NO
       SIGNIFICANT WEATHER AND/OR OBSTRUCTIONS TO VISIBILITY.
       CURRENT SKY AND/OR WEATHER CONDITIONS ARE NOT AVAILABLE FOR
       CHILLICOTHE AND FARMINGTON.

MOZ001>031-035>038-043-044-053-054-280000-
...NORTHERN AND WESTERN MISSOURI...

CITY           SKY/WX    TMP DP  RH WIND       PRES   REMARKS
KANSAS CTY INT CLEAR     54  31  41 SE10      30.08S
KANSAS C DTWN  CLEAR     57  31  37 SE7       30.08S
LEE`S SUMMIT   CLEAR     54  31  41 SE5       30.10S
ST JOSEPH      CLEAR     53  30  41 SE12      30.07F
CHILLICOTHE      N/A     48  33  56 SE6       30.14F
KIRKSVILLE     CLEAR     41  32  70 SE5       30.16R

$$
MOZ066>068-077>081-088>096-101>105-280000-
...SOUTHWEST MISSOURI...

CITY           SKY/WX    TMP DP  RH WIND       PRES   REMARKS
SPRINGFIELD    CLEAR     58  26  29 CALM      30.11S
JOPLIN         CLEAR     63  27  25 CALM      30.10S

$$
MOZ032>034-039>042-045>050-055>058-069>072-280000-
...CENTRAL MISSOURI...

CITY           SKY/WX    TMP DP  RH WIND       PRES   REMARKS
COLUMBIA       CLEAR     47  33  58 E6        30.15R
JEFFERSON CITY CLEAR     50  32  50 SE3       30.16R
ROLLA          CLEAR     48  31  51 NE5       30.13R
SEDALIA        CLEAR     50  32  50 E6        30.14S
WHITEMAN AFB   CLEAR     51  32  47 E6        30.11F
WARRENSBURG    CLEAR     52  30  43 E5        30.11S
OSAGE BEACH    CLEAR     52  30  43 NE3       30.14R

$$
MOZ051-052-059>065-280000-
...EAST CENTRAL MISSOURI...

CITY           SKY/WX    TMP DP  RH WIND       PRES   REMARKS
ST LOUIS INTL  PTCLDY    43  29  57 NE6       30.19
SPIRIT OF STL  CLEAR     43  31  62 NE8       30.18R
ST CHARLES     CLOUDY    39  31  72 NE12      30.20R

$$
MOZ072>076-082>087-097>100-106>115-280000-
...SOUTH CENTRAL AND SOUTHEAST MISSOURI...

CITY           SKY/WX    TMP DP  RH WIND       PRES   REMARKS
CAPE GIRARDEAU CLEAR     43  33  68 NE9       30.18R
FARMINGTON     CLEAR     46  30  53 MISG      30.19R
POPLAR BLUFF   CLEAR     50  34  54 NE6       30.15R
WEST PLAINS    CLEAR     56  28  34 NE3       30.12R

$$


USA.gov is the U.S. government's official web portal to all federal, state and local government web resources and services.